Flag for U.S.A. Weather past 2 weeks in Angels Camp, California, U.S.A.

Now
102 °F

Passing clouds.


Feels Like: 98 °F
Forecast: 60 / 100 °F
Wind: 13 mph from Northwest

Location: Modesto City-County-Sham Field

Current Time: Aug 27, 2015 at 5:51:32 PM

Latest Report: Aug 27, 2015 at 4:53 PM


Visibility: 10 mi

Pressure: 29.89 "Hg

Humidity: 13%

Dew point: 43 °F

Location of Angels CampLocation

Historic Weather in Angels Camp — Graph

°F

Angels Camp temperature yesterday

Maximum temperature yesterday: 98 °F (at 2:53 PM)
Minimum temperature yesterday: 67 °F (at 6:53 AM)
Average temperature yesterday: 83 °F

Past Weeks' High & Low Weather Summary

 TemperatureHumidityPressure
High105 °F (Aug 17, 3:53 PM)78% (Aug 13, 4:53 AM)30.04 "Hg (Aug 13, 4:53 AM)
Low61 °F (Aug 22, 6:53 AM)12% (Aug 15, 5:53 PM)29.72 "Hg (Aug 17, 5:53 PM)
Average80 °F41%29.89 "Hg
* Reported Aug 12 4:53 PM — Aug 27 4:53 PM, Angels Camp, Weather by CustomWeather, © 2015

Note: Actual official high and low records may vary slightly from our data, if they occured in-between our weather recording intervals... More about our weather records

Advertising

Angels Camp weather history for previous 24 hours

 ConditionsComfort  
Time TempWeatherWind HumidityBarometerVisibility
4:53 PM
Thu, Aug 27
102 °FPassing clouds.13 mph13%29.89 "Hg10 mi
3:53 PM101 °FScattered clouds.13 mph14%29.91 "Hg10 mi
2:53 PM100 °FPassing clouds.10 mph15%29.94 "Hg10 mi
1:53 PM99 °FSunny.12 mph15%29.96 "Hg10 mi
12:53 PM96 °FSunny.14 mph17%29.98 "Hg10 mi
11:53 AM93 °FSunny.7 mph16%30.00 "Hg10 mi
10:53 AM90 °FSunny.14 mph17%30.01 "Hg10 mi
9:53 AM85 °FSunny.5 mph21%30.01 "Hg10 mi
8:53 AM80 °FSunny.5 mph25%30.01 "Hg9 mi
7:53 AM74 °FSunny.No wind32%30.01 "Hg8 mi
6:53 AM72 °FClear.5 mph31%29.99 "Hg8 mi
5:53 AM73 °FClear.5 mph28%29.98 "Hg9 mi
4:53 AM73 °FClear.6 mph28%29.97 "Hg9 mi
3:53 AM73 °FClear.3 mph29%29.96 "Hg10 mi
2:53 AM74 °FClear.5 mph31%29.96 "Hg10 mi
1:53 AM75 °FClear.N/A32%29.96 "Hg10 mi
12:53 AM78 °FClear.7 mph28%29.96 "Hg10 mi
11:53 PM
Wed, Aug 26
79 °FClear.8 mph30%29.96 "Hg10 mi
10:53 PM81 °FClear.8 mph28%29.95 "Hg10 mi
9:53 PM84 °FClear.8 mph27%29.94 "Hg10 mi
8:53 PM87 °FClear.12 mph25%29.93 "Hg10 mi
7:53 PM90 °FSunny.12 mph20%29.90 "Hg10 mi
6:53 PM95 °FSunny.15 mph19%29.89 "Hg10 mi
5:53 PM97 °FSunny.12 mph15%29.89 "Hg10 mi
Weather by CustomWeather, © 2015

See weather overviewHow to use our weather pages